Theta_e
333 333 333 332 331 330 330 330 328 327 327 328 327 327 325 325 325 326 327 328 328 327 326 326 326 327 328 330 331 331 332 332 332 332 331 330 330 329 329 329 330 330 331 331 330 328 328 328 328 328 328 329 330 331 330 330 330 330 330 330 330 330 330
332 332 331 331 331 330 329 328 327 327 327 326 325 325 325 326 327 327 327 326 325 324 323 323 323 323 325 327 329 331 331 331 332 331 331 331 331 331 330 330 330 330 330 331 331 330 328 328 329 329 328 329 330 331 331 330 330 330 330 330 330 330 330
332 332 332 332 331 329 328 326 326 326 326 325 325 326 327 327 327 325 324 323 322 322 322 322 322 323 324 324 326 328 330 330 331 331 331 332 332 332 331 331 331 331 331 331 331 331 330 329 329 329 328 329 329 330 330 330 329 330 330 330 330 330 330
332 331 331 330 329 328 327 326 326 326 325 326 327 328 327 326 325 323 322 322 322 322 322 322 322 323 325 326 325 326 327 329 330 330 330 331 331 332 332 331 331 331 331 331 331 331 330 330 329 329 328 328 329 329 330 329 329 329 330 330 330 330 330
331 330 329 328 327 327 328 328 327 325 325 326 327 327 326 324 323 322 322 322 322 323 323 323 322 323 326 327 327 326 326 327 328 329 330 330 331 331 331 331 330 331 332 331 330 330 330 330 328 328 328 328 329 329 329 329 329 329 330 330 330 330 330
330 330 329 328 328 329 329 328 326 325 325 326 326 325 324 323 323 322 322 322 322 322 323 323 323 324 326 328 327 326 326 326 328 329 330 330 330 330 331 330 330 331 331 331 331 331 331 329 327 327 328 329 329 329 329 329 329 329 329 330 330 330 330
329 329 329 329 328 328 328 327 325 325 325 326 325 325 324 323 322 322 322 322 322 323 323 324 324 325 327 328 328 327 327 327 328 329 329 329 329 330 330 330 330 330 330 330 330 331 331 330 327 325 326 329 330 329 329 329 329 329 328 329 330 330 330
326 327 327 327 327 327 326 325 325 325 326 326 325 325 323 323 323 322 322 322 323 324 324 324 325 325 326 327 327 328 328 328 328 328 328 329 329 329 330 330 330 330 330 329 329 329 330 329 327 325 325 328 330 330 329 329 329 329 328 329 330 330 330
324 324 324 324 325 325 323 323 325 326 326 325 325 324 323 323 323 322 322 323 324 324 325 326 326 326 327 327 326 327 327 327 328 328 329 329 329 329 329 330 330 330 330 330 329 329 330 329 328 327 327 329 330 330 330 330 330 329 329 330 330 330 330
322 322 323 323 323 322 322 324 326 326 326 325 324 324 323 323 323 322 322 323 324 325 326 327 327 327 327 327 326 326 326 327 328 329 329 329 329 329 330 330 330 330 330 330 330 330 330 329 329 329 329 330 330 330 330 330 330 329 328 329 329 330 330
322 322 322 323 322 322 322 324 326 326 325 324 323 324 323 323 322 323 323 323 323 324 326 326 326 327 327 327 327 327 327 328 328 328 329 329 329 329 330 330 330 330 330 330 330 330 330 330 330 330 330 329 330 330 330 330 329 328 326 327 328 329 329
322 322 322 322 322 322 323 324 325 325 325 323 323 324 323 323 323 324 324 324 323 323 324 325 326 326 327 327 327 326 325 327 328 328 329 328 328 329 329 329 329 329 330 330 330 330 330 330 330 330 330 330 330 330 330 329 328 325 325 326 327 328 328
322 322 322 322 323 322 323 324 325 325 325 324 324 325 324 324 324 324 324 324 324 323 324 326 327 326 326 326 326 325 323 325 325 326 326 326 326 328 328 328 329 329 329 329 329 330 330 330 331 330 329 330 330 330 329 328 328 326 325 325 326 327 328
322 322 322 322 322 322 322 323 324 325 324 324 325 325 325 324 324 324 325 324 324 324 325 326 327 326 326 326 327 326 325 325 324 323 323 324 324 325 325 326 326 327 328 328 328 329 329 330 330 330 329 329 330 330 329 329 328 327 326 325 326 327 328
321 321 322 321 321 322 322 323 324 324 323 323 324 325 325 325 325 325 325 325 324 325 326 326 326 325 325 326 326 326 326 327 326 324 322 323 324 323 324 324 324 324 326 328 328 328 328 329 329 330 329 329 329 329 330 329 328 328 328 328 328 328 327
321 321 322 322 322 322 322 322 321 321 321 321 322 323 323 324 324 324 324 325 325 325 325 325 325 325 325 325 325 326 326 326 326 325 324 323 323 323 324 324 324 325 326 326 326 326 327 328 329 330 329 329 327 325 327 329 329 328 328 328 328 328 328
322 321 321 321 321 321 321 320 320 320 319 319 320 321 322 322 322 323 324 324 324 324 324 325 325 324 324 325 325 325 326 325 325 326 326 325 325 325 326 324 323 323 325 325 325 325 326 325 326 327 328 327 323 321 325 328 328 328 328 328 328 328 328
321 321 320 320 320 320 319 318 319 319 319 318 319 320 321 322 322 323 323 324 324 324 324 324 324 324 324 324 324 324 326 326 326 326 325 325 325 327 328 326 325 324 325 326 326 326 325 324 323 322 323 324 323 323 325 324 324 326 328 328 328 327 328
320 319 319 319 319 318 318 318 318 318 318 319 319 320 321 321 322 323 323 324 324 323 323 323 323 323 323 323 323 324 325 326 326 325 325 325 325 326 327 327 327 327 327 327 326 325 323 324 324 322 320 323 326 327 325 322 321 324 327 327 327 327 327
319 319 319 319 319 318 318 317 317 318 319 320 320 320 321 321 321 322 322 322 322 322 322 322 322 321 322 322 322 323 323 324 324 324 325 325 326 326 326 326 327 327 327 327 327 326 325 325 326 325 321 321 323 325 327 326 324 325 327 327 326 326 327
319 319 319 319 318 317 317 317 317 318 318 319 319 319 320 320 320 320 320 320 320 320 319 319 320 320 320 320 321 322 322 322 323 324 324 325 325 325 325 325 326 327 327 327 327 327 327 327 327 327 324 321 322 324 326 328 327 327 328 328 327 327 327
319 319 319 318 317 317 317 317 317 317 317 317 318 319 320 320 320 319 319 318 318 317 317 317 317 317 317 317 318 320 320 320 320 321 322 322 322 322 323 324 325 326 327 327 327 327 327 327 327 328 327 326 325 326 327 328 328 328 328 328 327 327 327
318 318 317 317 317 316 316 316 316 316 316 316 317 318 319 319 319 318 318 317 317 316 316 317 318 316 315 315 315 317 317 317 317 318 319 319 319 320 321 322 323 325 326 327 327 327 327 327 327 327 327 327 327 327 327 327 327 328 328 327 327 327 327
316 316 316 316 316 316 316 315 315 315 315 316 316 317 318 318 317 317 317 317 317 317 317 319 319 318 316 316 315 315 315 315 315 315 316 316 317 318 320 321 321 322 324 325 325 326 327 327 327 327 327 327 327 327 327 327 327 327 327 327 327 327 327
316 316 316 316 315 315 315 315 315 315 315 315 315 315 316 316 316 316 317 316 316 316 317 318 318 318 317 317 316 316 315 314 314 314 315 315 316 318 320 320 320 320 321 322 323 323 324 325 326 327 327 327 327 327 327 327 327 326 326 326 327 326 327
316 315 315 315 315 315 314 314 314 315 314 314 314 314 314 315 315 315 315 315 315 315 315 316 316 317 317 317 317 317 316 316 316 316 317 317 318 319 320 320 320 320 320 320 320 320 321 321 323 324 325 325 326 327 327 326 326 326 326 325 325 325 325
315 315 314 314 314 314 314 314 314 314 314 314 314 314 314 314 314 314 314 314 314 314 314 314 315 315 315 316 316 317 316 316 317 317 318 318 319 319 319 319 319 319 318 318 318 318 319 319 320 321 322 323 324 325 326 326 326 326 325 325 325 325 324
314 314 314 313 313 313 313 313 313 313 314 314 314 314 313 313 313 313 313 313 313 313 313 313 313 313 314 314 315 315 315 316 316 316 316 317 318 318 318 318 317 318 318 317 317 317 317 317 318 318 320 321 322 322 323 323 324 325 324 324 324 324 323
313 313 313 312 312 312 312 312 312 312 312 313 313 313 313 312 312 312 312 312 312 312 311 311 311 312 312 312 313 313 313 314 314 314 314 315 315 316 316 316 316 316 316 316 316 316 316 316 316 316 316 317 318 319 318 317 319 321 322 322 322 322 322
313 312 312 312 312 311 311 311 311 311 311 311 311 311 310 310 310 310 310 310 310 310 309 309 310 310 310 311 311 312 312 312 312 313 313 313 313 313 313 313 313 314 314 315 316 316 316 315 314 315 315 315 315 316 315 314 315 316 317 318 320 321 321
312 311 311 310 310 309 309 309 309 310 310 310 309 308 307 307 306 306 306 306 306 306 306 306 306 307 308 309 310 310 310 311 311 311 310 310 310 311 310 310 311 312 312 313 314 315 315 315 314 314 315 315 315 315 315 314 315 315 316 316 318 319 319
309 308 308 307 307 307 307 307 307 307 307 306 305 304 303 303 303 302 302 302 302 302 302 302 302 303 304 305 306 307 307 308 309 308 308 308 308 308 308 308 308 308 309 310 311 312 313 314 314 315 315 315 314 314 314 315 315 315 315 315 316 316 316
306 305 305 304 304 304 304 304 304 303 303 303 302 302 301 301 300 300 299 299 299 299 299 298 298 299 299 300 301 302 303 304 304 305 305 306 306 306 306 306 305 305 306 306 307 308 309 310 311 312 314 313 312 311 312 313 314 314 314 314 314 314 313
303 302 302 301 301 301 301 301 301 301 300 300 300 299 299 299 299 298 298 298 297 297 297 297 297 297 297 297 298 298 298 299 300 301 302 302 303 303 303 303 303 302 303 304 304 305 306 307 308 309 310 310 309 309 311 312 312 312 312 312 312 312 312
300 300 300 299 299 299 299 299 298 298 298 298 298 297 297 297 297 297 296 296 296 296 296 296 296 296 296 297 297 297 297 297 298 298 298 299 300 300 301 301 301 300 300 301 302 303 303 304 305 306 307 307 308 308 309 310 310 310 310 310 310 310 311
298 298 298 297 297 297 297 297 296 296 296 296 296 296 296 296 296 295 295 296 296 296 296 296 296 296 296 296 296 296 297 297 297 297 297 298 298 299 299 300 299 299 299 299 299 300 300 301 302 303 304 305 306 306 307 307 307 307 308 308 308 308 308
296 296 296 296 296 296 295 295 295 295 295 295 295 295 295 295 295 295 295 296 296 296 295 295 295 295 295 295 295 296 296 296 296 296 297 297 298 298 298 299 299 298 298 299 299 299 299 299 299 299 300 301 303 304 305 305 305 305 305 306 305 305 305
Wind_Speed
10 12 14 16 18 19 20 21 21 21 21 22 22 22 22 22 22 22 22 23 24 24 24 25 25 25 25 25 25 26 28 29 29 30 31 29 29 30 30 30 30 28 28 30 29 26 21 20 20 23 25 26 27 29 29 28 27 27 25 22 21 21 20
13 15 18 19 20 21 20 19 20 20 20 20 19 20 20 20 20 22 23 24 26 27 28 28 27 27 26 26 25 25 26 28 29 30 31 32 31 31 30 31 30 29 29 31 32 31 29 25 21 21 23 25 27 30 30 29 28 28 28 24 22 22 21
16 18 19 20 19 18 17 17 17 18 18 17 17 17 18 19 20 22 23 24 26 28 28 29 28 28 27 27 27 26 26 26 28 29 31 33 33 33 32 32 32 31 30 32 34 34 32 30 26 24 24 24 28 31 31 31 30 30 30 26 24 24 23
17 18 19 19 18 16 16 16 17 17 17 16 16 16 17 19 21 22 23 25 26 27 28 28 28 28 27 27 27 27 28 27 27 28 30 33 34 35 35 35 34 34 34 35 36 34 33 33 30 27 27 26 27 30 31 31 30 31 31 28 26 26 25
17 18 18 17 16 16 16 17 17 18 17 16 15 16 17 19 21 22 23 25 26 27 28 29 29 28 26 25 26 27 27 26 26 27 28 30 32 35 37 37 35 35 38 38 34 32 32 34 31 28 28 27 27 28 29 30 31 32 32 30 29 28 26
18 18 17 16 16 17 17 17 18 18 16 15 15 16 18 19 21 22 23 24 26 26 27 28 27 26 23 23 26 25 25 25 24 24 25 26 28 30 32 33 34 35 37 35 32 31 32 32 30 28 27 27 27 27 27 29 31 32 32 32 30 28 27
18 18 17 17 17 17 17 17 17 17 15 15 16 17 18 19 20 21 22 23 24 25 26 25 24 22 20 20 21 21 21 22 21 21 22 23 25 26 27 29 31 33 34 34 33 33 32 30 30 30 28 27 27 27 25 27 30 31 31 31 31 30 29
16 16 16 16 15 15 15 15 14 13 13 15 16 17 17 18 19 19 20 21 23 24 24 23 22 21 20 19 18 18 19 19 18 19 21 22 23 23 24 25 28 30 31 31 31 32 31 30 30 30 29 28 27 25 25 26 28 30 30 29 30 31 31
13 12 11 11 11 12 12 11 10 11 13 15 15 15 16 17 17 18 19 20 22 23 23 21 19 19 19 18 17 18 18 17 16 18 19 21 22 22 22 23 25 26 26 26 27 29 29 29 29 30 31 30 28 26 25 26 28 28 27 28 29 31 32
8 8 8 8 9 10 10 8 9 11 12 13 14 14 15 16 16 17 18 18 20 21 20 18 17 17 16 15 15 17 17 16 16 17 17 18 20 21 22 23 23 23 23 23 23 26 29 30 31 31 32 31 31 29 27 27 27 26 24 26 28 29 31
6 7 8 9 9 10 8 7 8 10 10 12 13 13 14 15 15 16 17 18 18 18 18 18 17 17 15 14 14 14 13 13 14 15 15 17 20 21 22 22 22 22 23 23 23 25 30 33 32 32 31 30 30 33 32 28 26 24 23 24 26 28 29
5 6 7 8 8 8 8 7 7 9 9 11 13 13 13 15 16 16 17 17 17 17 17 17 17 16 16 15 13 12 12 11 12 13 13 14 16 17 19 19 19 19 21 23 23 23 26 29 29 29 29 29 31 35 34 29 25 24 23 23 25 26 27
5 4 4 6 8 8 8 7 7 8 9 10 11 12 13 15 16 16 16 17 17 16 17 16 16 16 16 16 13 13 13 13 14 14 12 11 11 10 9 11 13 17 20 23 22 21 22 24 25 26 27 28 30 32 32 29 28 26 23 22 24 25 25
3 2 3 6 8 8 7 6 6 8 9 9 9 11 13 15 16 16 16 16 16 16 17 16 16 16 16 15 14 13 13 13 13 14 14 13 11 11 11 10 10 11 14 19 22 23 22 23 24 26 27 27 28 29 29 31 31 28 25 24 24 24 24
1 2 4 6 7 6 6 6 7 8 9 9 9 11 13 14 15 16 15 15 15 16 17 16 16 16 16 16 15 14 14 14 13 12 12 13 12 12 12 12 10 9 10 13 16 20 20 20 22 24 24 24 24 23 24 28 29 28 27 26 25 24 23
1 2 3 4 5 5 6 6 7 9 10 11 10 11 13 14 15 15 16 16 16 17 17 17 16 16 17 17 17 16 16 14 13 12 10 11 12 11 11 11 11 10 9 10 10 11 13 14 16 21 23 19 16 17 21 25 27 26 26 25 24 24 22
1 1 2 3 4 5 6 7 9 10 11 12 12 13 14 15 16 17 17 18 18 18 18 17 16 16 17 17 17 17 16 14 13 12 10 10 11 12 11 10 9 10 10 10 9 8 7 7 8 13 17 14 15 21 23 21 20 20 21 21 21 21 21
2 2 2 3 4 6 8 9 9 9 11 13 14 15 15 15 17 18 18 17 18 18 18 17 17 17 17 17 16 16 15 13 12 11 10 10 12 14 13 10 8 8 10 10 7 5 4 4 4 5 9 12 17 21 17 12 14 15 16 19 19 17 19
3 2 3 4 6 7 9 9 9 10 12 14 15 15 15 15 16 16 16 15 15 15 16 17 18 19 18 17 17 15 14 13 13 13 13 12 13 14 14 12 10 8 9 10 7 4 5 5 2 4 9 12 15 15 12 13 16 18 18 19 18 16 18
5 5 6 7 8 8 9 10 12 14 15 14 14 15 14 14 14 14 14 14 14 15 16 18 19 20 19 18 17 16 16 16 16 16 16 14 14 14 14 14 13 11 9 9 8 5 5 5 6 8 10 10 10 11 12 13 16 19 19 18 18 17 18
9 10 11 11 11 12 13 14 15 15 14 13 14 14 13 13 13 13 15 15 16 17 18 19 20 20 19 19 19 18 17 17 18 18 18 17 16 16 16 15 14 13 11 8 7 7 6 5 5 7 9 11 11 13 15 15 15 17 18 18 19 19 19
14 14 14 15 15 16 16 15 14 13 12 13 13 12 12 12 12 13 14 15 16 17 19 20 20 20 20 20 20 20 20 20 21 21 21 21 20 19 18 17 16 15 13 10 7 7 6 5 4 4 6 10 12 14 15 15 15 16 18 19 20 21 20
15 16 15 16 16 16 15 13 12 12 13 13 12 12 12 11 11 12 12 13 14 15 17 19 18 17 19 19 18 17 17 18 20 21 21 22 23 22 20 18 17 16 14 12 9 8 7 5 4 3 4 5 8 11 12 13 14 16 18 20 22 22 23
15 15 15 14 14 14 13 12 12 12 12 13 13 12 12 11 12 12 11 12 12 13 16 17 16 16 17 17 17 16 15 16 16 17 19 21 23 23 21 19 18 17 16 15 14 13 11 8 5 4 5 5 7 8 9 9 11 13 16 19 21 22 23
14 14 14 14 13 12 11 11 11 11 12 13 13 13 13 13 13 13 13 13 14 15 17 17 16 16 17 17 17 16 16 16 17 17 17 19 20 21 21 20 19 19 19 18 17 17 17 14 8 6 7 7 7 7 7 8 9 12 15 17 18 20 22
14 14 14 13 12 11 10 10 10 11 11 12 12 13 14 14 14 15 15 16 17 19 20 20 19 19 19 19 18 18 18 18 18 19 19 19 19 20 21 21 21 21 21 21 21 21 22 22 18 14 11 10 9 7 7 8 9 10 11 13 15 17 20
14 14 13 13 12 11 11 12 12 12 12 12 11 12 13 14 15 16 17 18 19 20 22 22 21 21 20 20 19 19 20 20 20 20 21 20 20 21 22 22 22 22 22 24 25 25 25 25 23 20 16 13 11 8 6 6 7 7 8 10 13 15 16
13 14 14 13 13 13 13 13 14 14 13 13 13 14 14 14 15 16 17 17 18 20 21 21 20 20 19 19 19 18 18 19 19 20 20 20 20 21 21 21 21 21 22 23 23 22 23 23 23 21 20 17 15 10 6 3 3 5 7 9 11 12 14
14 14 14 12 12 13 13 13 14 14 14 14 15 15 15 16 16 16 16 16 16 18 19 19 18 18 17 17 16 16 16 16 16 18 19 19 19 18 19 20 20 20 20 20 18 17 18 19 19 20 20 19 18 17 16 16 13 9 7 7 9 12 12
13 13 12 11 12 13 13 13 14 13 12 13 14 15 15 16 16 15 15 16 16 17 18 18 18 17 17 16 15 15 16 15 15 17 19 19 19 18 18 19 20 20 20 18 16 14 15 16 17 17 16 16 16 17 19 21 19 17 16 13 9 9 11
12 12 12 13 14 14 14 14 14 13 13 14 15 16 16 17 17 18 18 19 19 19 20 20 19 18 18 17 16 16 17 16 17 18 19 19 19 19 19 19 20 21 22 20 17 14 13 14 14 14 13 13 14 16 17 16 16 16 16 15 14 11 6
13 14 15 16 16 16 16 16 15 15 15 16 17 18 18 18 20 21 22 22 22 22 23 23 23 22 22 21 20 19 18 18 18 18 18 18 19 19 19 20 21 21 21 20 19 18 16 15 13 12 11 10 13 15 14 12 12 13 13 13 14 14 13
15 15 16 17 17 17 17 16 16 16 16 17 17 18 18 19 21 22 22 22 23 23 24 24 25 25 25 25 24 24 23 24 23 21 20 20 20 21 21 22 23 23 21 20 20 20 19 19 18 15 13 12 14 14 10 9 10 10 11 12 12 12 14
16 16 17 17 17 17 16 16 15 15 16 16 16 18 19 19 20 22 22 22 22 23 24 24 24 25 25 25 25 25 26 27 25 23 23 24 24 25 25 26 26 25 24 22 21 20 19 19 19 19 19 17 15 11 9 10 11 11 11 12 12 13 13
16 17 16 16 16 16 16 15 15 15 15 15 16 18 19 19 20 21 21 22 23 24 24 24 24 24 24 25 24 24 25 25 24 23 24 26 26 26 26 26 26 25 25 24 23 22 20 18 18 18 18 16 13 11 11 11 11 12 13 14 14 14 13
16 16 15 14 14 15 15 14 14 14 14 15 16 17 18 18 19 21 22 23 24 24 24 24 24 24 24 24 24 23 23 23 23 23 24 25 24 24 23 23 23 22 23 24 24 24 24 22 21 19 16 13 12 12 11 12 12 12 12 11 11 11 11
15 14 14 13 13 14 14 14 14 14 14 14 16 17 18 19 20 22 23 24 24 24 24 24 24 24 24 24 24 24 24 24 24 24 24 23 22 21 20 20 19 19 20 21 22 23 25 26 25 23 20 17 14 12 12 12 13 13 12 12 11 10 10
Wind_Direction
276 281 283 287 288 287 285 285 287 288 290 292 296 300 303 306 307 309 310 309 307 305 302 298 295 291 286 283 282 280 278 274 273 275 274 272 270 268 268 267 266 260 253 252 250 246 244 244 243 239 238 239 238 235 233 231 228 227 229 227 227 229 227
285 287 288 291 292 290 287 288 291 293 297 300 301 302 303 305 307 308 307 306 305 304 304 302 300 296 289 284 280 278 278 274 271 272 273 273 270 267 267 266 265 262 256 252 249 245 243 242 239 237 236 234 235 234 232 231 228 227 229 227 225 229 228
285 284 283 283 283 283 285 288 291 295 300 302 303 303 305 306 307 307 307 305 305 304 305 305 305 303 297 288 281 276 275 274 272 269 268 270 272 271 270 267 263 259 254 248 244 241 240 240 239 240 242 236 235 236 232 231 229 228 228 226 224 227 228
280 279 276 274 275 280 287 293 298 303 304 302 303 304 305 307 308 310 310 309 308 308 308 308 308 307 302 293 287 281 275 273 272 271 266 265 267 270 270 266 260 257 255 252 247 243 240 240 238 239 243 242 240 241 238 234 231 229 228 225 224 226 227
275 275 275 277 282 289 293 297 303 305 303 300 302 304 306 310 313 314 314 313 312 310 309 309 309 308 306 299 292 286 281 278 276 275 273 268 265 266 268 267 263 260 259 258 255 251 248 244 239 239 243 242 240 242 242 238 232 229 228 226 224 225 226
271 272 276 280 284 287 291 296 301 304 304 304 306 310 313 317 319 320 319 317 315 313 311 309 307 308 308 304 296 287 283 280 278 279 280 277 273 271 272 272 270 266 264 263 260 254 251 245 238 241 244 242 240 240 241 239 234 230 229 229 228 227 227
267 268 272 276 280 283 289 297 302 306 309 312 314 317 320 322 323 324 324 324 322 320 317 313 310 310 310 306 300 293 286 281 279 285 287 285 282 279 277 275 273 272 271 271 263 253 248 241 236 238 239 238 239 238 238 239 237 232 230 230 230 229 228
266 268 273 278 282 286 293 299 303 308 312 314 318 322 324 325 326 327 328 331 330 328 327 322 316 314 312 308 303 297 293 288 286 290 291 289 286 283 280 277 274 271 271 271 264 252 246 241 237 237 237 234 230 229 233 237 237 235 232 231 231 230 229
266 270 275 278 284 291 295 299 305 311 314 318 323 325 326 328 329 330 333 336 336 336 338 335 327 322 318 312 305 299 295 294 294 292 290 290 287 283 280 279 278 274 269 269 265 254 246 243 240 238 239 237 228 221 223 228 233 235 234 231 231 231 230
264 266 269 273 284 295 299 299 303 310 317 324 328 329 329 331 333 334 338 340 341 344 348 349 346 341 333 325 322 317 308 299 295 293 293 292 288 285 282 279 279 277 271 266 264 257 247 242 241 241 241 239 233 224 216 217 224 226 228 230 231 232 230
260 268 280 288 296 303 305 303 303 312 324 331 332 332 332 335 338 339 342 344 346 350 352 354 355 354 350 344 340 337 328 311 298 296 296 295 291 287 283 280 279 279 275 265 260 258 251 244 242 242 240 239 238 233 222 215 219 222 225 230 233 233 231
268 278 294 308 312 311 312 312 313 318 327 333 335 336 337 341 344 346 348 349 350 352 353 355 357 359 360 357 353 351 350 341 325 316 312 309 305 294 284 282 281 280 280 271 260 256 250 243 240 240 238 238 240 236 225 220 225 229 229 233 237 238 234
281 286 307 326 326 325 325 324 321 319 326 336 339 340 342 346 349 352 353 353 354 356 357 359 1 2 4 4 1 358 357 354 345 340 335 330 336 336 320 306 295 288 287 279 267 257 248 238 236 240 240 241 243 237 227 225 233 235 234 237 240 242 240
287 308 334 334 331 333 337 339 335 330 335 342 343 345 348 350 351 355 357 355 357 1 3 5 5 5 10 12 10 4 357 351 344 343 343 342 350 360 357 349 333 317 302 283 266 258 251 240 236 241 243 241 241 239 232 230 233 237 239 238 238 240 242
329 341 340 337 337 345 353 358 358 351 349 350 351 352 354 354 355 359 2 359 1 8 10 11 11 12 17 20 20 15 6 359 352 347 347 350 353 356 354 348 342 335 327 304 275 259 254 245 237 240 246 247 243 243 241 236 233 236 238 237 237 239 241
21 349 344 347 353 9 15 12 12 8 1 360 2 2 2 5 8 12 15 12 14 18 16 17 21 21 22 24 23 20 15 12 11 7 1 354 348 344 342 340 336 329 330 332 314 281 270 268 255 246 245 248 251 258 258 247 236 234 236 237 239 242 240
81 14 11 16 21 29 31 26 25 21 13 12 16 18 19 20 22 24 25 23 21 20 18 23 27 26 25 25 25 23 19 18 20 20 17 5 353 349 345 338 329 326 327 327 321 312 309 319 304 267 251 243 244 251 255 249 236 233 236 238 241 243 242
110 66 33 31 36 43 44 40 36 29 24 26 30 31 31 32 30 28 27 24 20 18 21 27 31 30 28 26 27 25 21 19 21 23 21 9 3 5 4 356 337 329 340 339 321 311 317 339 353 292 260 246 240 239 237 235 237 242 246 244 243 242 241
95 65 46 49 55 58 56 50 45 44 41 41 40 39 37 36 33 32 31 27 24 24 28 31 33 33 30 28 29 27 24 22 20 18 15 8 5 4 2 1 357 348 358 3 349 310 293 296 274 225 231 239 243 236 218 211 229 247 256 252 245 241 238
86 76 73 72 71 73 71 64 61 59 55 52 49 45 40 37 36 38 39 38 37 38 39 38 37 36 34 32 32 28 25 24 21 19 19 17 15 12 6 3 1 354 354 360 355 333 305 295 275 245 236 241 250 253 243 226 228 243 254 250 241 239 240
88 85 83 82 81 80 79 74 70 67 61 56 53 48 44 43 45 48 49 49 49 47 46 44 40 38 37 36 35 34 33 30 28 26 27 27 27 25 21 14 7 1 355 352 349 349 356 340 292 257 244 241 244 256 260 248 238 243 248 245 240 241 244
91 89 87 86 84 81 79 75 72 68 61 56 54 51 51 52 52 51 50 50 49 47 47 45 40 35 31 31 32 37 40 39 37 34 33 33 31 28 26 21 16 9 3 358 350 346 358 360 327 272 252 244 240 249 257 251 244 247 248 245 243 244 245
92 89 86 85 83 80 79 76 70 66 61 58 56 55 54 53 52 48 43 40 40 43 48 48 42 33 27 24 25 29 31 31 31 31 33 35 32 28 26 25 21 13 6 7 7 355 347 345 329 301 283 260 244 252 260 253 246 247 248 246 245 245 243
96 92 88 85 83 81 80 75 69 65 62 61 61 59 55 51 50 47 44 42 40 45 51 49 41 34 28 23 22 23 23 21 21 21 25 29 29 26 25 25 25 21 14 12 11 5 357 345 322 302 297 282 262 260 262 260 257 255 254 252 250 248 248
103 98 94 90 87 84 80 75 70 66 65 65 65 63 59 56 55 55 54 54 53 54 54 49 39 33 28 22 20 20 21 21 23 24 26 29 30 30 29 27 26 25 22 17 14 13 11 7 354 331 315 303 287 275 270 276 280 275 269 265 261 260 261
108 102 97 92 88 84 79 74 70 67 66 67 66 64 62 60 59 58 56 57 58 57 54 48 42 38 33 27 23 24 27 29 32 34 36 37 36 35 32 29 28 29 28 25 25 25 22 19 14 5 352 338 322 305 294 294 290 283 279 274 269 270 273
111 104 99 93 88 83 76 72 71 70 69 68 65 64 62 60 58 56 54 54 56 55 52 47 43 41 39 36 32 31 33 35 36 39 40 41 41 39 36 35 38 40 39 36 32 30 29 26 21 17 14 2 344 324 299 284 280 277 277 272 268 269 271
110 105 100 95 89 83 77 74 74 73 71 69 68 67 66 64 62 60 58 56 55 55 53 47 42 40 38 37 36 34 33 33 35 38 40 42 45 47 46 45 45 44 43 41 35 29 30 29 24 22 24 23 18 12 7 357 299 277 274 270 267 268 272
108 104 100 95 89 83 78 77 76 75 75 75 75 74 72 70 68 66 64 60 58 59 57 51 45 40 37 35 34 32 31 30 31 34 36 37 40 46 47 44 41 37 36 37 31 23 25 26 23 23 25 27 29 30 33 35 30 15 349 307 276 268 271
105 103 100 95 89 84 82 81 81 82 81 81 80 77 74 73 71 69 67 62 59 60 59 54 49 45 41 37 36 37 37 35 35 37 37 35 34 36 38 38 36 32 29 26 19 15 17 18 18 23 28 29 28 28 31 32 30 27 24 14 345 298 264
104 103 100 94 90 88 87 85 85 84 82 81 80 77 75 74 72 69 68 65 62 61 59 56 52 49 46 41 39 43 44 44 45 46 45 42 39 39 40 39 36 33 30 25 18 15 14 10 11 19 27 29 27 27 31 33 30 27 25 23 19 4 320
101 100 98 95 93 91 89 87 86 85 84 82 82 80 78 77 75 72 70 68 66 64 61 59 54 51 50 47 45 46 46 47 48 49 48 47 45 43 42 40 38 34 30 25 22 21 18 15 18 27 28 23 22 26 30 30 28 26 22 21 24 19 11
101 99 97 96 95 93 90 90 89 87 86 85 84 83 80 78 76 74 71 68 66 64 61 58 54 51 49 47 46 46 46 46 47 47 48 47 45 43 41 38 37 32 27 24 24 24 23 22 24 28 27 24 27 30 27 20 21 20 11 10 12 6 360
103 100 98 97 97 96 94 93 91 89 88 86 85 82 80 78 76 73 70 66 63 61 58 56 53 50 48 46 44 43 45 46 46 46 48 48 47 45 43 41 39 34 30 28 26 25 26 26 25 29 31 32 32 27 16 14 20 13 1 357 354 347 343
107 104 103 102 101 99 98 95 92 91 89 86 83 80 77 75 73 71 68 64 61 59 57 55 53 51 48 47 46 44 45 46 45 44 46 48 48 47 45 43 42 38 36 36 34 32 31 29 28 31 34 33 31 25 18 14 8 356 349 346 341 337 340
111 110 109 107 104 102 101 98 94 91 88 84 81 79 76 73 71 70 68 64 62 59 57 55 53 51 49 48 47 46 47 46 43 41 42 44 43 44 44 44 41 39 39 41 41 40 40 38 35 33 30 23 18 16 17 19 17 9 358 349 342 342 348
114 113 112 110 106 104 102 99 95 91 87 84 82 80 77 75 73 71 69 66 62 58 55 54 52 50 49 48 47 46 45 43 41 38 38 39 38 37 38 39 38 38 40 43 44 44 44 43 41 38 34 29 21 10 6 13 18 17 14 14 14 16 16